Weather reports worldwide

Advertisment
Jacksonville, fl, United States of America (2072905): temperature & dewpoint: 24.03.2020 22:00:00 - 30.03.2020 22:00:00 (EDT)Jacksonville, fl, United States of America (2072905): wind speed & gusts: 24.03.2020 22:00:00 - 30.03.2020 22:00:00 (EDT)Jacksonville, fl, United States of America (2072905): wind direction: 24.03.2020 22:00:00 - 30.03.2020 22:00:00 (EDT)Jacksonville, fl, United States of America (2072905): reduced air pressure: 24.03.2020 22:00:00 - 30.03.2020 22:00:00 (EDT)Jacksonville, fl, United States of America (2072905): visibility: 24.03.2020 22:00:00 - 30.03.2020 22:00:00 (EDT)
Date & Time tt [°C] td [°C] ff [km/h] ff [kn] fx [km/h] fx [kn] dd ppp [hPa] vv [km]
30.03.2020 22:00:00 25,6 20,6 9 5 - - S 1015,8 16
30.03.2020 21:00:00 25,6 20,0 11 6 - - SE 1015,7 16
30.03.2020 20:00:00 25,6 20,0 13 7 - - ESE 1015,3 16
30.03.2020 19:00:00 27,2 19,4 15 8 - - ESE 1015,2 16
30.03.2020 18:00:00 28,9 19,4 16 9 - - E 1014,7 16
30.03.2020 17:00:00 30,0 18,3 16 9 - - E 1015,1 16
30.03.2020 16:00:00 31,1 17,8 11 6 - - ESE 1015,4 16
30.03.2020 15:00:00 31,1 19,4 8 4 - - ENE 1016,4 16
30.03.2020 14:00:00 30,6 19,4 11 6 - - ESE 1017,8 16
30.03.2020 13:00:00 29,4 18,9 11 6 - - SSE 1019,0 16
30.03.2020 12:00:00 28,9 20,0 9 5 - - NNE 1019,9 16
30.03.2020 11:00:00 26,7 19,4 5 3 - - - 1020,5 16
30.03.2020 10:00:00 25,0 19,4 5 3 - - - 1020,3 16
30.03.2020 09:00:00 22,8 18,9 8 4 - - WNW 1020,5 11
30.03.2020 08:00:00 21,7 18,9 5 3 - - W 1020,3 11
30.03.2020 07:00:00 21,7 18,3 0 0 - - N 1019,7 11
30.03.2020 06:00:00 22,2 18,9 0 0 - - N 1019,3 15
30.03.2020 05:00:00 22,8 18,9 0 0 - - N 1019,0 16
30.03.2020 04:00:00 22,8 18,3 5 3 - - W 1018,8 16
30.03.2020 03:00:00 23,3 18,3 8 4 - - WNW 1019,2 16
30.03.2020 02:00:00 23,3 18,3 8 4 - - W 1019,3 16
30.03.2020 01:00:00 24,4 18,3 9 5 - - W 1019,6 16
30.03.2020 00:00:00 25,6 18,3 13 7 - - W 1019,8 16
29.03.2020 23:00:00 26,7 18,9 16 9 - - W 1019,8 16
29.03.2020 22:00:00 25,6 20,0 0 0 - - N 1019,2 16
29.03.2020 21:00:00 26,1 20,0 13 7 - - ESE 1018,3 16
29.03.2020 20:00:00 27,2 20,0 13 7 - - SE 1018,2 16
29.03.2020 19:00:00 30,0 19,4 13 7 - - E 1018,1 16
29.03.2020 18:00:00 32,8 18,3 15 8 - - E 1017,7 16
29.03.2020 17:00:00 32,8 17,8 13 7 - - E 1017,7 16
29.03.2020 16:00:00 32,8 18,3 11 6 - - E 1018,0 16
29.03.2020 15:00:00 31,7 18,3 13 7 - - NNE 1019,1 16
29.03.2020 14:00:00 30,0 18,9 9 5 - - ESE 1019,9 16
29.03.2020 13:00:00 29,4 19,4 15 8 - - SE 1020,6 16
29.03.2020 12:00:00 28,3 18,9 5 3 - - - 1021,3 16
29.03.2020 11:00:00 25,6 17,2 9 5 - - W 1021,6 16
29.03.2020 10:00:00 22,8 18,9 15 8 - - WSW 1021,2 10
29.03.2020 09:00:00 21,1 18,9 11 6 - - WSW 1020,8 6
29.03.2020 08:00:00 21,1 18,9 9 5 - - WSW 1020,1 11
29.03.2020 07:00:00 21,7 18,3 9 5 - - SSW 1018,9 16
29.03.2020 06:00:00 22,8 18,9 13 7 - - S 1017,8 15
29.03.2020 05:00:00 22,8 18,9 11 6 - - SSW 1017,3 16
29.03.2020 04:00:00 22,2 17,8 5 3 - - SSW 1017,4 16
29.03.2020 03:00:00 23,3 17,8 8 4 - - W 1017,8 16
29.03.2020 02:00:00 23,9 17,2 9 5 - - W 1018,0 16
29.03.2020 01:00:00 25,6 17,2 13 7 - - W 1017,9 16
29.03.2020 00:00:00 25,6 20,0 8 4 - - SW 1017,7 16
28.03.2020 23:00:00 25,6 19,4 15 8 - - S 1017,5 16
28.03.2020 22:00:00 26,1 19,4 15 8 - - S 1017,0 16
28.03.2020 21:00:00 26,1 19,4 13 7 - - SE 1016,5 16
28.03.2020 20:00:00 27,2 20,6 13 7 - - ESE 1015,8 16
28.03.2020 19:00:00 29,4 20,6 16 9 - - E 1015,2 16
28.03.2020 18:00:00 35,0 14,4 16 9 - - W 1014,8 16
28.03.2020 17:00:00 34,4 14,4 15 8 - - W 1015,0 16
28.03.2020 16:00:00 33,9 17,2 15 8 - - SSE 1015,1 16
28.03.2020 15:00:00 32,2 18,3 13 7 - - SSE 1016,0 16
28.03.2020 14:00:00 30,6 17,8 13 7 - - SE 1016,6 16
28.03.2020 13:00:00 30,0 17,2 15 8 - - SE 1017,4 16
28.03.2020 12:00:00 28,9 16,7 13 7 - - S 1018,0 16
28.03.2020 11:00:00 26,7 17,8 8 4 - - SSE 1018,3 16
28.03.2020 10:00:00 25,0 17,2 9 5 - - S 1018,3 16
28.03.2020 09:00:00 23,3 16,7 0 0 - - N 1018,2 16
28.03.2020 08:00:00 21,7 16,1 0 0 - - N 1017,3 16
28.03.2020 07:00:00 21,7 15,6 5 3 - - WSW 1016,6 16
28.03.2020 06:00:00 21,7 15,6 5 3 - - SSW 1016,1 16
28.03.2020 05:00:00 22,2 16,7 11 6 - - W 1016,1 16
28.03.2020 04:00:00 23,3 16,7 8 4 - - W 1016,2 16
28.03.2020 03:00:00 23,3 18,9 8 4 - - S 1016,7 16
28.03.2020 02:00:00 23,9 16,7 9 5 - - S 1016,9 16
28.03.2020 01:00:00 26,1 16,7 8 4 - - W 1016,9 16
28.03.2020 00:00:00 26,1 16,7 11 6 - - W 1016,8 16
27.03.2020 23:00:00 25,6 19,4 13 7 - - S 1016,8 16
27.03.2020 22:00:00 26,1 20,0 11 6 - - S 1016,2 16
27.03.2020 21:00:00 26,7 20,0 15 8 - - SE 1015,3 16
27.03.2020 20:00:00 30,0 16,7 11 6 - - SSW 1014,7 16
27.03.2020 19:00:00 32,8 16,1 15 8 - - WSW 1014,3 16
27.03.2020 18:00:00 33,3 16,1 21 11 - - WSW 1014,2 16
27.03.2020 17:00:00 32,8 16,7 13 7 - - SW 1014,4 16
27.03.2020 16:00:00 32,2 17,8 16 9 - - S 1014,7 16
27.03.2020 15:00:00 30,6 17,8 18 10 - - SSE 1015,4 16
27.03.2020 14:00:00 29,4 18,9 15 8 - - SE 1016,4 16
27.03.2020 13:00:00 27,8 18,9 15 8 - - SSE 1016,8 16
27.03.2020 12:00:00 25,6 19,4 13 7 - - SSE 1017,0 16
27.03.2020 11:00:00 24,4 19,4 8 4 - - S 1017,1 16
27.03.2020 10:00:00 23,3 19,4 15 8 - - S 1016,2 11
27.03.2020 09:00:00 21,7 19,4 9 5 - - SW 1016,1 8
27.03.2020 08:00:00 21,7 19,4 15 8 - - WSW 1015,9 13
27.03.2020 07:00:00 22,2 19,4 18 10 - - SSW 1015,0 16
27.03.2020 06:00:00 22,8 20,0 13 7 - - S 1015,1 16
27.03.2020 05:00:00 22,8 20,0 11 6 - - S 1014,9 16
27.03.2020 04:00:00 22,8 19,4 15 8 - - S 1015,0 16
27.03.2020 03:00:00 22,8 19,4 13 7 - - S 1015,9 16
27.03.2020 02:00:00 22,8 19,4 13 7 - - S 1016,5 16
27.03.2020 01:00:00 22,8 18,9 15 8 - - SSE 1016,9 16
27.03.2020 00:00:00 22,8 18,9 16 9 - - S 1017,0 16
26.03.2020 23:00:00 22,8 18,9 15 8 - - SSE 1016,5 16
26.03.2020 22:00:00 23,3 18,9 16 9 - - ESE 1016,0 16
26.03.2020 21:00:00 23,3 18,3 18 10 - - ESE 1015,7 16
26.03.2020 20:00:00 23,3 18,3 22 12 - - E 1015,4 16
26.03.2020 19:00:00 25,0 18,3 24 13 - - ESE 1015,3 16
26.03.2020 18:00:00 26,7 18,9 22 12 - - E 1015,1 16
26.03.2020 17:00:00 27,8 18,9 24 13 - - E 1014,9 16
26.03.2020 16:00:00 27,8 18,3 18 10 - - SE 1015,3 16
26.03.2020 15:00:00 28,9 19,4 21 11 - - E 1015,7 16
26.03.2020 14:00:00 28,3 18,9 21 11 - - E 1016,5 16
26.03.2020 13:00:00 27,8 19,4 22 12 - - ESE 1016,8 16
26.03.2020 12:00:00 27,8 19,4 21 11 - - E 1017,1 16
26.03.2020 11:00:00 26,1 18,9 22 12 - - E 1017,0 16
26.03.2020 10:00:00 25,0 18,9 15 8 - - ENE 1016,6 16
26.03.2020 09:00:00 23,9 18,9 13 7 - - ENE 1016,2 16
26.03.2020 08:00:00 22,2 19,4 13 7 - - NE 1015,2 15
26.03.2020 07:00:00 22,2 18,9 13 7 - - N 1014,3 16
26.03.2020 06:00:00 22,2 18,9 8 4 - - NW 1013,4 16
26.03.2020 05:00:00 22,8 19,4 15 8 - - NNW 1012,9 16
26.03.2020 04:00:00 22,8 18,9 11 6 - - WSW 1012,5 16
26.03.2020 03:00:00 22,8 18,9 11 6 - - W 1012,8 16
26.03.2020 02:00:00 23,3 18,9 15 8 - - WSW 1012,9 16
26.03.2020 01:00:00 23,9 18,3 21 11 - - WSW 1012,8 16
26.03.2020 00:00:00 25,0 17,8 24 13 - - WSW 1012,6 16
25.03.2020 23:00:00 25,6 17,2 22 12 - - W 1012,6 16
25.03.2020 22:00:00 26,7 16,7 16 9 - - WSW 1012,1 16
25.03.2020 21:00:00 28,3 16,7 16 9 - - W 1011,1 16
25.03.2020 20:00:00 29,4 17,2 24 13 - - W 1010,6 16
25.03.2020 19:00:00 31,1 16,1 18 10 - - W 1010,0 16
25.03.2020 18:00:00 31,7 15,6 18 10 - - W 1009,5 16
25.03.2020 17:00:00 31,7 16,1 21 11 - - W 1009,6 16
25.03.2020 16:00:00 31,1 16,1 29 16 - - W 1010,0 16
25.03.2020 15:00:00 32,2 17,2 29 16 - - WSW 1010,4 16
25.03.2020 14:00:00 30,6 16,7 21 11 - - W 1011,5 16
25.03.2020 13:00:00 29,4 17,8 24 13 - - W 1012,5 16
25.03.2020 12:00:00 28,9 18,3 26 14 48 26 W 1012,7 16
25.03.2020 11:00:00 26,7 18,9 29 16 - - W 1013,1 16
25.03.2020 10:00:00 25,6 18,9 26 14 - - WSW 1013,2 16
25.03.2020 09:00:00 23,9 18,9 18 10 - - WSW 1013,2 16
25.03.2020 08:00:00 22,2 18,9 15 8 - - WSW 1013,0 16
25.03.2020 07:00:00 22,2 18,3 13 7 - - SW 1012,6 16
25.03.2020 06:00:00 22,2 18,3 15 8 - - SW 1012,6 16
25.03.2020 05:00:00 22,2 18,3 13 7 - - SW 1012,9 16
25.03.2020 04:00:00 22,2 18,9 21 11 - - WSW 1012,7 16
25.03.2020 03:00:00 22,2 18,3 16 9 - - WSW 1013,2 16
25.03.2020 02:00:00 22,2 17,8 18 10 - - SW 1013,6 16
25.03.2020 01:00:00 22,8 16,7 21 11 - - WSW 1014,3 16
25.03.2020 00:00:00 23,3 15,6 21 11 - - WSW 1015,1 16
24.03.2020 23:00:00 24,4 14,4 18 10 - - WSW 1015,2 16
24.03.2020 22:00:00 25,6 14,4 16 9 - - SW 1015,6 16

tt = temperature
td = dewpoint
ff = wind speed
fx = gusts
dd = wind direction
ppp = reduced air pressure
vv = visibility

Next stations